Hourly Data Report for October 06, 2016

All times are specified in Local Standard Time (LST). Add 1 hour to adjust for Daylight Saving Time where and when it is observed.

RESOLUTE BAY A
NUNAVUT

74°43'01.000" N
94°58'10.000" W
67.70 m
2403498
71924
YRB

Download Data

Hourly Data (October 2016)
Hourly Data Report for October 6, 2016
Temp Definition
°C
Dew Point Temp Definition
°C
Rel Hum Definition
%
Wind Dir Definition
10's deg

Wind Spd Definition
km/h
Visibility Definition
km
Stn Press Definition
kPa
Hmdx Definition


Wind Chill Definition


Weather Definition


TIME
00:00 Legend Double Dagger -3.3 -4.0 95 31 14 24.1 100.56   -8 Snow
01:00 Legend Double Dagger -3.3 -4.0 95 31 14 8.1 100.55   -8 Snow
02:00 Legend Double Dagger -3.2 -3.8 96 31 16 11.3 100.56   -9 Snow
03:00 Legend Double Dagger -3.0 -3.6 96 30 16 16.1 100.57   -8 Snow
04:00 Legend Double Dagger -3.3 -4.0 95 30 21 24.1 100.55   -10 Snow
05:00 Legend Double Dagger -3.5 -4.3 94 29 17 24.1 100.53   -9 Snow
06:00 Legend Double Dagger -3.8 -4.6 94 28 20 16.1 100.50   -10 Snow
07:00 Legend Double Dagger -3.9 -4.7 94 28 22 8.1 100.49   -10 Snow
08:00 Legend Double Dagger -3.9 -4.7 94 28 26 9.7 100.45   -11 Snow
09:00 Legend Double Dagger -3.9 -4.9 93 29 25 19.3 100.43   -11 Snow
10:00 Legend Double Dagger -3.9 -4.9 93 28 27 16.1 100.43   -11 Snow
11:00 Legend Double Dagger -4.1 -5.2 92 29 23 16.1 100.41   -11 Snow
12:00 Legend Double Dagger -3.8 -4.8 93 28 23 19.3 100.40   -11 Snow
13:00 Legend Double Dagger -3.6 -4.4 94 27 29 19.3 100.41   -11 Snow
14:00 Legend Double Dagger -3.4 -4.2 94 30 23 19.3 100.41   -10 Snow
15:00 Legend Double Dagger -3.4 -4.5 92 30 27 24.1 100.43   -11 Snow
16:00 Legend Double Dagger -3.6 -4.9 91 29 28 24.1 100.42   -11 LegendNANA
17:00 Legend Double Dagger -3.5 -4.5 93 28 27 24.1 100.45   -11 LegendNANA
18:00 Legend Double Dagger -3.3 -4.3 93 29 23 19.3 100.47   -10 Snow
19:00 Legend Double Dagger -3.3 -4.3 93 30 27 6.4 100.48   -10 Snow
20:00 Legend Double Dagger -3.3 -4.1 94 30 31 9.7 100.51   -11 Snow
21:00 Legend Double Dagger -3.9 -5.2 91 31 30 24.1 100.53   -12 Snow
22:00 Legend Double Dagger -5.1 -6.8 88 33 28 24.1 100.57   -13 Snow
23:00 Legend Double Dagger -6.2 -7.9 88 33 34 24.1 100.63   -15 Snow

Notes on Data Quality.

Legend

  • E = Estimated
  • M = Missing
  • NA = Not Available
  • ‡ = Partner data that is not subject to review by the National Climate Archives
Date modified: